| time (UTC) | temp F | wind direction | speed MPH | gust MPH | rain 1hr in | rain 24hr in | rain mn in | humidity % | barometer mb |
| 20260507064224 | 67 | 268 | 0.0 | 0.0 | 0.00 | 0.53 | 0.02 | 100 | 1010.8 |
| 20260507063715 | 67 | 268 | 0.0 | 0.0 | 0.00 | 0.53 | 0.02 | 100 | 1010.8 |
| 20260507063220 | 67 | 268 | 0.0 | 2.0 | 0.01 | 0.53 | 0.02 | 100 | 1010.5 |
| 20260507062713 | 67 | 268 | 0.0 | 2.0 | 0.01 | 0.53 | 0.02 | 100 | 1010.6 |
| 20260507062215 | 67 | 211 | 0.0 | 0.0 | 0.01 | 0.53 | 0.02 | 100 | 1010.7 |
| 20260507061707 | 67 | 211 | 0.0 | 0.0 | 0.01 | 0.53 | 0.02 | 100 | 1011.1 |
| 20260507061207 | 67 | 211 | 0.0 | 0.0 | 0.02 | 0.53 | 0.02 | 100 | 1011.0 |
| 20260507060656 | 67 | 211 | 0.0 | 0.0 | 0.02 | 0.53 | 0.02 | 100 | 1011.2 |
| 20260507060154 | 67 | 211 | 0.0 | 0.0 | 0.02 | 0.53 | 0.02 | 100 | 1011.0 |
| 20260507055638 | 67 | 211 | 0.0 | 0.0 | 0.02 | 0.53 | 0.02 | 100 | 1011.1 |
| 20260507054536 | 67 | 211 | 0.0 | 0.0 | 0.02 | 0.53 | 0.02 | 99 | 1011.3 |
| 20260507054032 | 67 | 211 | 0.0 | 0.0 | 0.02 | 0.53 | 0.02 | 99 | 1011.5 |
| 20260507053514 | 67 | 211 | 0.0 | 0.0 | 0.02 | 0.53 | 0.02 | 99 | 1011.6 |
| 20260507052518 | 67 | 211 | 0.0 | 0.0 | 0.01 | 0.52 | 0.01 | 99 | 1011.6 |
| 20260507051934 | 67 | 211 | 0.0 | 0.0 | 0.01 | 0.52 | 0.01 | 99 | 1011.6 |
| 20260507051414 | 67 | 211 | 0.0 | 0.0 | 0.02 | 0.52 | 0.01 | 99 | 1011.7 |
| 20260507050914 | 67 | 211 | 0.0 | 0.0 | 0.01 | 0.51 | 0.00 | 99 | 1011.5 |
| 20260507050414 | 67 | 211 | 0.0 | 0.0 | 0.03 | 0.51 | 0.00 | 99 | 1011.5 |
| 20260507045911 | 67 | 211 | 0.0 | 0.0 | 0.05 | 0.51 | 0.51 | 99 | 1011.6 |
| 20260507045412 | 67 | 211 | 0.0 | 0.0 | 0.05 | 0.51 | 0.51 | 99 | 1011.2 |
| 20260507044846 | 67 | 211 | 0.0 | 0.0 | 0.06 | 0.51 | 0.51 | 99 | 1011.2 |
| 20260507044348 | 67 | 211 | 0.0 | 0.0 | 0.09 | 0.51 | 0.51 | 99 | 1011.1 |
| 20260507043816 | 67 | 211 | 0.0 | 0.0 | 0.11 | 0.51 | 0.51 | 99 | 1011.3 |
| 20260507043305 | 67 | 211 | 0.0 | 0.0 | 0.12 | 0.51 | 0.51 | 99 | 1011.4 |
| 20260507042805 | 67 | 211 | 0.0 | 0.0 | 0.12 | 0.51 | 0.51 | 99 | 1011.5 |
| 20260507042308 | 67 | 211 | 0.0 | 0.0 | 0.13 | 0.51 | 0.51 | 99 | 1011.6 |
| 20260507040726 | 67 | 211 | 0.0 | 0.0 | 0.13 | 0.49 | 0.49 | 99 | 1012.0 |
| 20260507040209 | 67 | 211 | 0.0 | 0.0 | 0.12 | 0.47 | 0.47 | 99 | 1010.9 |
| 20260507035702 | 67 | 211 | 0.0 | 0.0 | 0.13 | 0.46 | 0.46 | 99 | 1010.9 |
| 20260507035145 | 67 | 211 | 0.0 | 0.0 | 0.15 | 0.45 | 0.45 | 99 | 1011.1 |
| 20260507034612 | 67 | 211 | 0.0 | 0.0 | 0.16 | 0.43 | 0.44 | 99 | 1011.1 |
| 20260507034058 | 67 | 211 | 0.0 | 0.0 | 0.16 | 0.41 | 0.41 | 99 | 1011.3 |
| 20260507032537 | 68 | 211 | 0.0 | 4.0 | 0.15 | 0.39 | 0.39 | 99 | 1011.3 |
| 20260507032038 | 68 | 117 | 0.0 | 1.0 | 0.16 | 0.38 | 0.38 | 99 | 1011.5 |
| 20260507031426 | 68 | 117 | 0.0 | 0.0 | 0.18 | 0.38 | 0.38 | 98 | 1012.3 |
| 20260507030924 | 68 | 117 | 0.0 | 0.0 | 0.17 | 0.37 | 0.37 | 98 | 1012.7 |
| 20260507030422 | 68 | 117 | 0.0 | 0.0 | 0.17 | 0.36 | 0.36 | 98 | 1012.9 |
| 20260507025417 | 68 | 117 | 0.0 | 0.0 | 0.13 | 0.32 | 0.32 | 98 | 1012.4 |
| 20260507024916 | 68 | 117 | 0.0 | 0.0 | 0.09 | 0.28 | 0.29 | 98 | 1012.8 |
| 20260507024344 | 68 | 117 | 0.0 | 0.0 | 0.07 | 0.26 | 0.26 | 98 | 1012.6 |
| 20260507023842 | 68 | 117 | 0.0 | 0.0 | 0.05 | 0.24 | 0.24 | 98 | 1012.2 |
| 20260507023342 | 68 | 117 | 0.0 | 0.0 | 0.05 | 0.24 | 0.24 | 98 | 1012.1 |
| 20260507022309 | 69 | 117 | 0.0 | 0.0 | 0.04 | 0.23 | 0.23 | 98 | 1011.7 |
| 20260507021811 | 70 | 117 | 0.0 | 0.0 | 0.01 | 0.20 | 0.20 | 98 | 1011.6 |
| 20260507021251 | 70 | 117 | 0.0 | 0.0 | 0.01 | 0.20 | 0.20 | 98 | 1011.8 |
| 20260507020747 | 71 | 117 | 0.0 | 0.0 | 0.00 | 0.19 | 0.19 | 98 | 1011.5 |
| 20260507015216 | 72 | 117 | 0.0 | 0.0 | 0.00 | 0.19 | 0.19 | 99 | 1011.4 |
| 20260507014716 | 72 | 117 | 0.0 | 0.0 | 0.00 | 0.19 | 0.19 | 99 | 1011.3 |
| 20260507014214 | 72 | 117 | 0.0 | 0.0 | 0.00 | 0.19 | 0.19 | 99 | 1011.3 |
| 20260507013704 | 72 | 117 | 0.0 | 0.0 | 0.00 | 0.19 | 0.19 | 99 | 1011.2 |
| 20260507013201 | 72 | 117 | 0.0 | 0.0 | 0.00 | 0.19 | 0.19 | 99 | 1010.9 |
| 20260507012702 | 72 | 117 | 0.0 | 0.0 | 0.00 | 0.19 | 0.19 | 99 | 1010.8 |
| 20260507012137 | 72 | 117 | 0.0 | 0.0 | 0.00 | 0.19 | 0.19 | 99 | 1011.1 |
| 20260507011621 | 72 | 117 | 0.0 | 0.0 | 0.00 | 0.19 | 0.19 | 99 | 1010.8 |
| 20260507011122 | 72 | 117 | 0.0 | 0.0 | 0.00 | 0.19 | 0.19 | 99 | 1011.2 |
| 20260507010555 | 72 | 117 | 0.0 | 0.0 | 0.00 | 0.19 | 0.19 | 98 | 1010.8 |
| 20260507010106 | 72 | 117 | 0.0 | 0.0 | 0.00 | 0.19 | 0.19 | 98 | 1010.2 |
| 20260507005039 | 73 | 117 | 0.0 | 0.0 | 0.00 | 0.19 | 0.19 | 98 | 1010.7 |
| 20260507004021 | 73 | 117 | 0.0 | 0.0 | 0.00 | 0.19 | 0.19 | 98 | 1010.9 |
| 20260507003518 | 73 | 117 | 0.0 | 0.0 | 0.00 | 0.19 | 0.19 | 98 | 1011.2 |
| 20260507003015 | 73 | 117 | 0.0 | 0.0 | 0.00 | 0.19 | 0.19 | 98 | 1011.3 |
| 20260507002512 | 73 | 117 | 0.0 | 0.0 | 0.00 | 0.19 | 0.19 | 98 | 1010.7 |
| 20260507001443 | 73 | 117 | 0.0 | 0.0 | 0.00 | 0.19 | 0.19 | 98 | 1010.6 |
| 20260507000442 | 73 | 117 | 0.0 | 0.0 | 0.00 | 0.19 | 0.19 | 98 | 1011.1 |
| 20260506235926 | 73 | 117 | 0.0 | 0.0 | 0.00 | 0.19 | 0.19 | 98 | 1010.7 |
| 20260506235421 | 73 | 117 | 0.0 | 0.0 | 0.00 | 0.19 | 0.19 | 97 | 1010.9 |
| 20260506234414 | 73 | 117 | 0.0 | 0.0 | 0.00 | 0.19 | 0.19 | 98 | 1010.7 |
| 20260506233850 | 73 | 113 | 0.0 | 0.0 | 0.00 | 0.19 | 0.19 | 97 | 1010.9 |
| 20260506233322 | 73 | 113 | 0.0 | 0.0 | 0.00 | 0.19 | 0.19 | 97 | 1011.4 |
| 20260506232233 | 73 | 113 | 0.0 | 0.0 | 0.00 | 0.19 | 0.19 | 97 | 1011.3 |
| 20260506231705 | 73 | 113 | 0.0 | 0.0 | 0.00 | 0.19 | 0.19 | 97 | 1011.5 |
| 20260506231200 | 73 | 113 | 0.0 | 4.0 | 0.00 | 0.19 | 0.19 | 97 | 1011.6 |
| 20260506230647 | 74 | 113 | 0.0 | 4.0 | 0.00 | 0.19 | 0.19 | 97 | 1011.5 |
| 20260506230147 | 74 | 167 | 0.0 | 0.0 | 0.00 | 0.19 | 0.19 | 97 | 1011.6 |
| 20260506225617 | 74 | 167 | 0.0 | 1.0 | 0.00 | 0.19 | 0.19 | 97 | 1011.8 |
| 20260506225115 | 74 | 167 | 0.0 | 1.0 | 0.00 | 0.19 | 0.19 | 97 | 1011.4 |
| 20260506224550 | 74 | 167 | 0.0 | 1.0 | 0.00 | 0.19 | 0.19 | 97 | 1011.4 |
| 20260506224027 | 73 | 166 | 0.0 | 1.0 | 0.01 | 0.19 | 0.19 | 97 | 1011.2 |
| 20260506223449 | 73 | 167 | 0.0 | 4.0 | 0.01 | 0.19 | 0.19 | 97 | 1011.2 |
| 20260506222921 | 73 | 167 | 0.0 | 3.0 | 0.01 | 0.19 | 0.19 | 97 | 1011.1 |
| 20260506222420 | 73 | 165 | 0.0 | 2.0 | 0.01 | 0.19 | 0.19 | 97 | 1011.3 |
| 20260506221915 | 73 | 155 | 0.0 | 0.0 | 0.01 | 0.19 | 0.19 | 97 | 1011.2 |
| 20260506220904 | 73 | 158 | 0.0 | 0.0 | 0.02 | 0.19 | 0.19 | 97 | 1011.2 |
| 20260506220323 | 73 | 158 | 0.0 | 0.0 | 0.02 | 0.19 | 0.19 | 96 | 1011.5 |
| 20260506215821 | 73 | 158 | 0.0 | 0.0 | 0.03 | 0.19 | 0.19 | 96 | 1011.6 |
| 20260506214819 | 73 | 158 | 0.0 | 2.0 | 0.11 | 0.19 | 0.19 | 96 | 1011.4 |
| 20260506214320 | 73 | 158 | 0.0 | 2.0 | 0.18 | 0.19 | 0.19 | 95 | 1011.5 |
| 20260506213758 | 73 | 158 | 0.0 | 1.0 | 0.18 | 0.18 | 0.18 | 95 | 1011.5 |
| 20260506213242 | 73 | 153 | 0.0 | 2.0 | 0.18 | 0.18 | 0.18 | 95 | 1011.5 |
| 20260506211659 | 74 | 158 | 0.0 | 1.0 | 0.18 | 0.18 | 0.18 | 93 | 1011.8 |
| 20260506211156 | 74 | 148 | 0.0 | 0.0 | 0.17 | 0.17 | 0.17 | 93 | 1011.8 |
| 20260506210633 | 74 | 146 | 0.0 | 0.0 | 0.17 | 0.17 | 0.17 | 92 | 1011.8 |
| 20260506210134 | 74 | 146 | 0.0 | 0.0 | 0.17 | 0.17 | 0.17 | 91 | 1012.0 |
| 20260506205104 | 75 | 146 | 0.0 | 0.0 | 0.14 | 0.14 | 0.14 | 88 | 1011.9 |
| 20260506204537 | 75 | 151 | 0.0 | 1.0 | 0.04 | 0.04 | 0.05 | 86 | 1012.0 |
| 20260506204032 | 76 | 151 | 0.0 | 0.0 | 0.00 | 0.00 | 0.00 | 85 | 1012.0 |
| 20260506203508 | 76 | 169 | 0.0 | 4.0 | 0.00 | 0.00 | 0.00 | 85 | 1011.8 |
| 20260506202958 | 76 | 169 | 0.0 | 4.0 | 0.00 | 0.00 | 0.00 | 83 | 1011.8 |
| 20260506202459 | 76 | 169 | 0.0 | 2.0 | 0.00 | 0.00 | 0.00 | 83 | 1011.7 |
| 20260506201936 | 76 | 171 | 0.0 | 2.0 | 0.00 | 0.00 | 0.00 | 82 | 1011.9 |
| 20260506201415 | 76 | 130 | 0.0 | 2.0 | 0.00 | 0.00 | 0.00 | 81 | 1012.0 |
| 20260506200913 | 77 | 65 | 0.0 | 2.0 | 0.00 | 0.00 | 0.00 | 81 | 1012.1 |
| 20260506200348 | 77 | 320 | 0.0 | 5.0 | 0.00 | 0.00 | 0.00 | 81 | 1012.1 |
| 20260506195849 | 77 | 90 | 0.0 | 5.0 | 0.00 | 0.00 | 0.00 | 80 | 1012.2 |
| 20260506195348 | 77 | 144 | 0.0 | 1.0 | 0.00 | 0.00 | 0.00 | 81 | 1012.2 |
| 20260506194849 | 77 | 145 | 0.0 | 6.0 | 0.00 | 0.00 | 0.00 | 81 | 1012.4 |
| 20260506194340 | 77 | 148 | 0.0 | 6.0 | 0.00 | 0.00 | 0.00 | 81 | 1012.6 |
| 20260506193838 | 77 | 108 | 0.0 | 1.0 | 0.00 | 0.00 | 0.00 | 80 | 1012.7 |
| 20260506193339 | 77 | 182 | 0.0 | 1.0 | 0.00 | 0.00 | 0.00 | 80 | 1012.9 |
| 20260506192330 | 77 | 126 | 0.0 | 1.0 | 0.00 | 0.00 | 0.00 | 79 | 1013.0 |
| 20260506191828 | 77 | 126 | 0.0 | 6.0 | 0.00 | 0.00 | 0.00 | 79 | 1013.1 |
| 20260506191326 | 77 | 172 | 0.0 | 6.0 | 0.00 | 0.00 | 0.00 | 79 | 1013.1 |
| 20260506190805 | 77 | 103 | 0.0 | 5.0 | 0.00 | 0.00 | 0.00 | 80 | 1013.0 |
| 20260506190246 | 77 | 171 | 0.0 | 5.0 | 0.00 | 0.00 | 0.00 | 79 | 1013.2 |
| 20260506185746 | 77 | 173 | 0.0 | 5.0 | 0.00 | 0.00 | 0.00 | 79 | 1013.3 |
| 20260506185246 | 77 | 165 | 1.0 | 9.0 | 0.00 | 0.00 | 0.00 | 78 | 1013.2 |
| 20260506184719 | 77 | 202 | 1.0 | 8.0 | 0.00 | 0.00 | 0.00 | 78 | 1013.3 |
| 20260506184209 | 77 | 117 | 1.0 | 7.0 | 0.00 | 0.00 | 0.00 | 78 | 1013.2 |
| 20260506183706 | 77 | 130 | 0.0 | 5.0 | 0.00 | 0.00 | 0.00 | 78 | 1013.3 |
| 20260506183205 | 77 | 103 | 1.0 | 5.0 | 0.00 | 0.00 | 0.00 | 78 | 1013.3 |
| 20260506182702 | 77 | 93 | 0.0 | 5.0 | 0.00 | 0.00 | 0.00 | 78 | 1013.4 |
| 20260506182147 | 77 | 96 | 0.0 | 5.0 | 0.00 | 0.00 | 0.00 | 78 | 1013.4 |
| 20260506180536 | 77 | 165 | 0.0 | 5.0 | 0.00 | 0.00 | 0.00 | 77 | 1013.5 |
| 20260506180014 | 78 | 169 | 1.0 | 8.0 | 0.00 | 0.00 | 0.00 | 76 | 1013.4 |
| 20260506175507 | 78 | 169 | 1.0 | 8.0 | 0.00 | 0.00 | 0.00 | 76 | 1013.4 |
| 20260506175007 | 78 | 107 | 1.0 | 6.0 | 0.00 | 0.00 | 0.00 | 76 | 1013.4 |
| 20260506174458 | 78 | 108 | 1.0 | 6.0 | 0.00 | 0.00 | 0.00 | 75 | 1013.5 |
| 20260506173958 | 78 | 230 | 1.0 | 6.0 | 0.00 | 0.00 | 0.00 | 75 | 1013.7 |
| 20260506173459 | 78 | 0 | 1.0 | 6.0 | 0.00 | 0.00 | 0.00 | 74 | 1013.6 |
| 20260506172954 | 79 | 350 | 1.0 | 6.0 | 0.00 | 0.00 | 0.00 | 73 | 1013.5 |
| 20260506171951 | 79 | 142 | 1.0 | 7.0 | 0.00 | 0.00 | 0.00 | 74 | 1013.7 |
| 20260506171448 | 79 | 112 | 0.0 | 1.0 | 0.00 | 0.00 | 0.00 | 74 | 1013.7 |
| 20260506170914 | 78 | 112 | 1.0 | 7.0 | 0.00 | 0.00 | 0.00 | 76 | 1013.7 |
| 20260506170412 | 78 | 112 | 1.0 | 7.0 | 0.00 | 0.00 | 0.00 | 74 | 1013.7 |
| 20260506165852 | 78 | 62 | 0.0 | 5.0 | 0.00 | 0.00 | 0.00 | 74 | 1013.7 |
| 20260506165352 | 78 | 67 | 0.0 | 5.0 | 0.00 | 0.00 | 0.00 | 74 | 1013.8 |
| 20260506164827 | 78 | 325 | 0.0 | 4.0 | 0.00 | 0.00 | 0.00 | 74 | 1013.9 |
| 20260506164315 | 78 | 88 | 0.0 | 4.0 | 0.00 | 0.00 | 0.00 | 74 | 1013.8 |
| 20260506163812 | 78 | 88 | 1.0 | 4.0 | 0.00 | 0.00 | 0.00 | 76 | 1013.8 |
| 20260506163311 | 78 | 80 | 1.0 | 6.0 | 0.00 | 0.00 | 0.00 | 73 | 1013.9 |
| 20260506162216 | 78 | 77 | 0.0 | 5.0 | 0.00 | 0.00 | 0.00 | 73 | 1013.7 |
| 20260506161701 | 78 | 81 | 0.0 | 4.0 | 0.00 | 0.00 | 0.00 | 73 | 1013.7 |
| 20260506161134 | 78 | 150 | 1.0 | 7.0 | 0.00 | 0.00 | 0.00 | 74 | 1013.6 |
| 20260506160555 | 78 | 151 | 2.0 | 7.0 | 0.00 | 0.00 | 0.00 | 74 | 1013.6 |
| 20260506160104 | 77 | 150 | 1.0 | 7.0 | 0.00 | 0.00 | 0.00 | 76 | 1013.6 |
| 20260506155547 | 77 | 157 | 1.0 | 7.0 | 0.00 | 0.00 | 0.00 | 74 | 1013.7 |
| 20260506155036 | 77 | 92 | 1.0 | 5.0 | 0.00 | 0.00 | 0.00 | 74 | 1013.8 |
| 20260506154534 | 77 | 141 | 0.0 | 2.0 | 0.00 | 0.00 | 0.00 | 75 | 1013.7 |
| 20260506153441 | 76 | 141 | 1.0 | 6.0 | 0.00 | 0.00 | 0.00 | 78 | 1013.8 |
| 20260506152922 | 75 | 134 | 0.0 | 5.0 | 0.00 | 0.00 | 0.00 | 78 | 1013.7 |
| 20260506152412 | 75 | 128 | 1.0 | 8.0 | 0.00 | 0.00 | 0.00 | 79 | 1013.8 |
| 20260506151853 | 75 | 46 | 0.0 | 8.0 | 0.00 | 0.00 | 0.00 | 78 | 1013.9 |
| 20260506151327 | 75 | 131 | 0.0 | 4.0 | 0.00 | 0.00 | 0.00 | 79 | 1013.9 |
| 20260506150800 | 74 | 112 | 0.0 | 5.0 | 0.00 | 0.00 | 0.00 | 80 | 1014.0 |
| 20260506150304 | 74 | 151 | 0.0 | 5.0 | 0.00 | 0.00 | 0.00 | 80 | 1014.0 |
| 20260506145754 | 74 | 125 | 0.0 | 1.0 | 0.00 | 0.00 | 0.00 | 81 | 1013.9 |
| 20260506145250 | 74 | 231 | 0.0 | 5.0 | 0.00 | 0.00 | 0.00 | 81 | 1014.0 |
| 20260506144739 | 73 | 157 | 0.0 | 5.0 | 0.00 | 0.00 | 0.00 | 81 | 1014.1 |
| 20260506144214 | 73 | 184 | 0.0 | 4.0 | 0.00 | 0.00 | 0.00 | 82 | 1014.1 |
| 20260506143654 | 73 | 132 | 0.0 | 7.0 | 0.00 | 0.00 | 0.00 | 82 | 1014.1 |
| 20260506143154 | 73 | 180 | 1.0 | 7.0 | 0.00 | 0.00 | 0.00 | 83 | 1014.2 |
| 20260506142652 | 72 | 75 | 1.0 | 7.0 | 0.00 | 0.00 | 0.00 | 83 | 1014.0 |
| 20260506142152 | 72 | 162 | 0.0 | 8.0 | 0.00 | 0.00 | 0.00 | 84 | 1014.0 |
| 20260506141650 | 72 | 38 | 0.0 | 8.0 | 0.00 | 0.00 | 0.00 | 84 | 1014.1 |
| 20260506140619 | 71 | 211 | 1.0 | 6.0 | 0.00 | 0.00 | 0.00 | 85 | 1014.2 |
| 20260506140104 | 71 | 183 | 1.0 | 6.0 | 0.00 | 0.00 | 0.00 | 86 | 1014.0 |
| 20260506135020 | 70 | 168 | 1.0 | 6.0 | 0.00 | 0.00 | 0.00 | 86 | 1014.1 |
| 20260506134008 | 70 | 188 | 0.0 | 6.0 | 0.00 | 0.00 | 0.00 | 87 | 1014.3 |
| 20260506133442 | 70 | 169 | 0.0 | 5.0 | 0.00 | 0.00 | 0.00 | 88 | 1014.3 |
| 20260506132926 | 70 | 130 | 0.0 | 6.0 | 0.00 | 0.00 | 0.00 | 88 | 1014.3 |
| 20260506132411 | 70 | 162 | 0.0 | 6.0 | 0.00 | 0.00 | 0.00 | 89 | 1014.3 |
| 20260506131845 | 69 | 140 | 0.0 | 2.0 | 0.00 | 0.00 | 0.00 | 89 | 1014.3 |
| 20260506131331 | 69 | 144 | 0.0 | 5.0 | 0.00 | 0.00 | 0.00 | 89 | 1014.5 |
| 20260506130819 | 69 | 145 | 0.0 | 5.0 | 0.00 | 0.00 | 0.00 | 89 | 1014.5 |
| 20260506130254 | 69 | 84 | 0.0 | 2.0 | 0.00 | 0.00 | 0.00 | 89 | 1014.5 |
| 20260506125727 | 69 | 92 | 0.0 | 2.0 | 0.00 | 0.00 | 0.00 | 89 | 1014.5 |
| 20260506125202 | 69 | 103 | 0.0 | 2.0 | 0.00 | 0.00 | 0.00 | 89 | 1014.4 |
| 20260506124635 | 69 | 103 | 0.0 | 1.0 | 0.00 | 0.00 | 0.00 | 89 | 1014.4 |
| 20260506124124 | 68 | 32 | 0.0 | 4.0 | 0.00 | 0.00 | 0.00 | 89 | 1014.3 |
| 20260506123118 | 68 | 157 | 0.0 | 5.0 | 0.00 | 0.00 | 0.00 | 89 | 1014.3 |
| 20260506122615 | 68 | 130 | 0.0 | 4.0 | 0.00 | 0.00 | 0.00 | 89 | 1014.2 |
| 20260506122049 | 68 | 164 | 0.0 | 1.0 | 0.00 | 0.00 | 0.00 | 89 | 1014.1 |
| 20260506121546 | 68 | 142 | 0.0 | 4.0 | 0.00 | 0.00 | 0.00 | 89 | 1014.0 |
| 20260506121035 | 68 | 142 | 0.0 | 4.0 | 0.00 | 0.00 | 0.00 | 89 | 1013.9 |
| 20260506120533 | 68 | 174 | 0.0 | 0.0 | 0.00 | 0.00 | 0.00 | 89 | 1013.7 |
| 20260506120007 | 68 | 174 | 0.0 | 4.0 | 0.00 | 0.00 | 0.00 | 89 | 1013.6 |
| 20260506115441 | 68 | 174 | 0.0 | 5.0 | 0.00 | 0.00 | 0.00 | 89 | 1013.5 |
| 20260506114938 | 68 | 174 | 0.0 | 5.0 | 0.00 | 0.00 | 0.00 | 88 | 1013.3 |
| 20260506114437 | 67 | 154 | 0.0 | 1.0 | 0.00 | 0.00 | 0.00 | 88 | 1013.4 |
| 20260506113928 | 67 | 170 | 0.0 | 0.0 | 0.00 | 0.00 | 0.00 | 88 | 1013.4 |
| 20260506113428 | 67 | 170 | 0.0 | 0.0 | 0.00 | 0.00 | 0.00 | 88 | 1013.3 |
| 20260506112925 | 67 | 169 | 0.0 | 1.0 | 0.00 | 0.00 | 0.00 | 87 | 1013.0 |
| 20260506111919 | 67 | 225 | 0.0 | 0.0 | 0.00 | 0.00 | 0.00 | 87 | 1013.0 |
| 20260506111417 | 67 | 225 | 0.0 | 0.0 | 0.00 | 0.00 | 0.00 | 87 | 1013.0 |
| 20260506110904 | 67 | 225 | 0.0 | 0.0 | 0.00 | 0.00 | 0.00 | 87 | 1012.9 |
| 20260506110343 | 67 | 225 | 0.0 | 0.0 | 0.00 | 0.00 | 0.00 | 86 | 1012.9 |
| 20260506105846 | 67 | 225 | 0.0 | 0.0 | 0.00 | 0.00 | 0.00 | 86 | 1013.0 |
| 20260506105328 | 67 | 225 | 0.0 | 4.0 | 0.00 | 0.00 | 0.00 | 86 | 1012.9 |
| 20260506104828 | 67 | 225 | 0.0 | 4.0 | 0.00 | 0.00 | 0.00 | 86 | 1012.7 |
| 20260506103816 | 67 | 225 | 0.0 | 4.0 | 0.00 | 0.00 | 0.00 | 86 | 1012.6 |
| 20260506103254 | 68 | 187 | 0.0 | 4.0 | 0.00 | 0.00 | 0.00 | 86 | 1012.5 |
| 20260506102737 | 68 | 182 | 0.0 | 4.0 | 0.00 | 0.00 | 0.00 | 86 | 1012.5 |
| 20260506102238 | 68 | 185 | 0.0 | 0.0 | 0.00 | 0.00 | 0.00 | 86 | 1012.4 |
| 20260506101716 | 68 | 185 | 0.0 | 0.0 | 0.00 | 0.00 | 0.00 | 85 | 1012.4 |
| 20260506101204 | 68 | 185 | 0.0 | 1.0 | 0.00 | 0.00 | 0.00 | 85 | 1012.4 |
| 20260506100154 | 68 | 188 | 0.0 | 0.0 | 0.00 | 0.00 | 0.00 | 85 | 1012.2 |
| 20260506095637 | 68 | 188 | 0.0 | 0.0 | 0.00 | 0.00 | 0.00 | 85 | 1012.0 |
| 20260506095138 | 68 | 188 | 0.0 | 0.0 | 0.00 | 0.00 | 0.00 | 85 | 1012.1 |
| 20260506094633 | 68 | 188 | 0.0 | 0.0 | 0.00 | 0.00 | 0.00 | 85 | 1012.0 |
| 20260506093611 | 68 | 188 | 0.0 | 1.0 | 0.00 | 0.00 | 0.00 | 84 | 1011.9 |
| 20260506093109 | 68 | 188 | 0.0 | 1.0 | 0.00 | 0.00 | 0.00 | 84 | 1011.8 |
| 20260506092045 | 68 | 217 | 0.0 | 2.0 | 0.00 | 0.00 | 0.00 | 84 | 1011.5 |
| 20260506091543 | 68 | 217 | 0.0 | 2.0 | 0.00 | 0.00 | 0.00 | 84 | 1011.6 |
| 20260506091044 | 68 | 233 | 0.0 | 4.0 | 0.00 | 0.00 | 0.00 | 83 | 1011.8 |
| 20260506090546 | 68 | 233 | 0.0 | 5.0 | 0.00 | 0.00 | 0.00 | 83 | 1011.7 |
| 20260506090010 | 68 | 121 | 0.0 | 5.0 | 0.00 | 0.00 | 0.00 | 83 | 1011.5 |
| 20260506085457 | 68 | 290 | 0.0 | 2.0 | 0.00 | 0.00 | 0.00 | 83 | 1011.3 |
| 20260506084453 | 68 | 182 | 0.0 | 4.0 | 0.00 | 0.00 | 0.00 | 82 | 1011.2 |
| 20260506083928 | 68 | 182 | 0.0 | 4.0 | 0.00 | 0.00 | 0.00 | 82 | 1011.4 |
| 20260506083407 | 68 | 150 | 0.0 | 4.0 | 0.00 | 0.00 | 0.00 | 82 | 1011.4 |
| 20260506082851 | 68 | 134 | 0.0 | 3.0 | 0.00 | 0.00 | 0.00 | 82 | 1011.5 |
| 20260506082346 | 68 | 150 | 0.0 | 1.0 | 0.00 | 0.00 | 0.00 | 82 | 1011.6 |
| 20260506081844 | 68 | 149 | 0.0 | 1.0 | 0.00 | 0.00 | 0.00 | 81 | 1011.5 |
| 20260506081318 | 68 | 78 | 0.0 | 1.0 | 0.00 | 0.00 | 0.00 | 81 | 1011.5 |
| 20260506080814 | 68 | 72 | 0.0 | 1.0 | 0.00 | 0.00 | 0.00 | 81 | 1011.6 |
| 20260506080311 | 68 | 151 | 0.0 | 1.0 | 0.00 | 0.00 | 0.00 | 81 | 1011.5 |
| 20260506073117 | 69 | 143 | 0.0 | 2.0 | 0.00 | 0.00 | 0.00 | 79 | 1011.5 |
| 20260506072537 | 69 | 60 | 0.0 | 2.0 | 0.00 | 0.00 | 0.00 | 78 | 1011.5 |
| 20260506072035 | 69 | 82 | 0.0 | 1.0 | 0.00 | 0.00 | 0.00 | 78 | 1011.6 |
| 20260506071005 | 69 | 158 | 0.0 | 4.0 | 0.00 | 0.00 | 0.00 | 77 | 1011.6 |
| 20260506070516 | 69 | 179 | 0.0 | 2.0 | 0.00 | 0.00 | 0.00 | 77 | 1011.7 |